Regional Weather Roundup
Issued by NWS Northern Indiana

Home | Current Version | Previous Version | Text Only | Print | Product List | Glossary Off
Versions: 1 2 3 4 5 6 7 8 9 10 11 12 13 14 15 16 17 18 19 20 21 22 23 24 25 26 27 28 29 30 31 32 33 34 35 36 37 38 39 40 41 42 43 44 45 46 47 48 49 50

000
ASUS43 KIWX 230200
RWRIWX

KIWX WEATHER ROUNDUP
NATIONAL WEATHER SERVICE NORTHERN INDIANA
1000 PM EDT WED OCT 22 2014

NOTE: "FAIR" INDICATES FEW OR NO CLOUDS BELOW 12,000 FEET WITH NO
SIGNIFICANT WEATHER AND/OR OBSTRUCTIONS TO VISIBILITY.

* THESE STATIONS ARE NOT UNDER NWS QUALITY CONTROL. THEY ALSO MAY NOT
  REPORT WEATHER SUCH AS PRECIPITATION OR FOG.

INZ001>027-230300-
NORTHERN INDIANA

CITY           SKY/WX    TMP DP  RH WIND       PRES   REMARKS
SOUTH BEND     CLEAR     41  36  82 CALM      30.29S
GOSHEN         CLEAR     38  36  92 E5        30.28F
ANGOLA*        CLEAR     39  27  60 CALM      30.29S
FORT WAYNE     CLEAR     39  36  89 E3        30.30S
PERU/GRISSOM   CLEAR     45  44  95 E5        30.27R

$$
INZ028>050-230300-
CENTRAL INDIANA

CITY           SKY/WX    TMP DP  RH WIND       PRES   REMARKS
LAFAYETTE      CLEAR     42  38  85 CALM      30.26S
KOKOMO*        CLEAR     43  37  81 E7        30.27S
MUNCIE*        CLEAR     41  38  89 E6        30.27F
INDIANAPOLIS   CLEAR     49  39  68 E5        30.25S

$$
MIZ043>046-050>051-056>058-064>065-071>073-077>080-230300-
SOUTHWEST LOWER MICHIGAN

CITY           SKY/WX    TMP DP  RH WIND       PRES   REMARKS
BATTLE CREEK   CLEAR     43  36  76 E3        30.29S
BENTON HARBOR  CLEAR     35  34  96 E3        30.28F
COLDWATER*     CLEAR     37  37  97 CALM      30.29S FOG
HILLSDALE*     CLEAR     34  34 100 CALM      30.28S
HOLLAND        CLEAR     41  36  82 CALM      30.30S
GRAND RAPIDS   CLEAR     38  35  89 E3        30.30F
KALAMAZOO      CLEAR     38  35  89 CALM      30.30S
STURGIS*       CLEAR     36  36 100 E3        30.28F
THREE RIVERS*  FAIR      37  35  92 CALM      30.29F FOG

$$
OHZ001>008-015>018-024>025-230300-
NORTHWEST OHIO

CITY           SKY/WX    TMP DP  RH WIND       PRES   REMARKS
DEFIANCE       CLEAR     38  35  89 CALM      30.29S
FINDLAY        CLOUDY    47  40  76 NW7       30.27S
TOLEDO EXPRESS MOCLDY    45  40  82 NW5       30.28S
TOLEDO METCALF CLOUDY    48  42  80 W3        30.28S
LIMA           MOCLDY    42  39  89 NW3       30.28S

$$
AND FOR LAKE MICHIGAN COASTAL AND OPEN LAKE BUOY OBSERVATIONS

STATION/POSITION TEMP    WIND        PRES    VSBY  WAVE
                 AIR SEA DIR/SP/G                  HT/PER
                 (F)     (DEG/KT/KT) (MB)    (MI)  (FT/S)
CALUMET HARBOR    50      70/  4/  7 1023.7F
MICHIGAN CITY     47      70/  9/ 10   N/A
SAINT JOSEPH      43                 1025.4F
SOUTH LAKE BUOY   48 54  100/  6/  8 1025.8F         1

$$
&&



USA.gov is the U.S. government's official web portal to all federal, state and local government web resources and services.